Zurück zum Katalog

STARLINK-32648

AktivKommunikationVLEO
NORAD 62301·PAYLOAD·🇺🇸 United States

Gestartet Dec 13, 2024 von Vandenberg Space Force Base

Loading…

Nächste Überflüge (nächste 24 Stunden)

TLE

AktuellSource: CelesTrak SupGP

Epoche: Sep 15, 2026, 02:11 UTC

1 62301C 24239A   26258.09145833  .00022167  00000+0  65515-3 0  2588
2 62301  53.1594  18.6344 0001193  89.6174 175.3091 15.34369626    18

Verfolge STARLINK-32648 in Echtzeit mit AllMySat

Download on the App Store